User: anonymous   Login
Location: Unspecified
(0.0000°N, 0.0000°E)
Time: 00:03:34
(UTC+00:00)
Language:

GHGSAT-C12 - Orbit

View from above orbital plane
View from above orbital plane
View from above satellite
View from above satellite

Ground track
Ground track

The orbit is defined by the following mean orbital elements,

1 64529U          26145.60508795 +.00000000 +00000-0 +14981-3 0 00003
2 64529  97.4720 260.6168 0003531 242.5178 117.5699 15.20110339    00
Epoch (UTC): 25 May 2026 14:31:19
Eccentricity: 0.0003531
inclination: 97.4720°
perigee height: 503 km
apogee height: 508 km
right ascension of ascending node: 260.6168°
argument of perigee: 242.5178°
revolutions per day: 15.20110339
mean anomaly at epoch: 117.5699°

The dashed part of the orbit path shows where the satellite is in the earth's shadow,  

DLR